Regional Weather Roundup
Issued by NWS

Home | Current Version | Previous Version | Graphics & Text | Print | Product List | Glossary On
Versions: 1 2 3 4 5 6 7 8 9 10 11 12 13 14 15 16 17 18 19 20 21 22 23 24 25 26 27 28 29 30 31 32 33 34 35 36 37 38 39 40 41 42 43 44 45 46 47 48 49 50
000
ASUS43 KBIS 190510
RWRND

NORTH DAKOTA REGIONAL WEATHER ROUNDUP
NATIONAL WEATHER SERVICE BISMARCK ND
1200 AM CDT FRI SEP 19 2014

NOTE: "FAIR" INDICATES FEW OR NO CLOUDS BELOW 12,000 FEET WITH NO
SIGNIFICANT WEATHER AND/OR OBSTRUCTIONS TO VISIBILITY.


NDZ001>003-009>011-017-190600-
NORTHWEST NORTH DAKOTA

CITY           SKY/WX    TMP DP  RH WIND       PRES   REMARKS
WILLISTON      CLOUDY    62  54  74 SW5       29.61R
MINOT          CLOUDY    73  57  57 S12       29.56F
MINOT AFB      CLOUDY    70  59  68 S9        29.55F
$$

NDZ018>021-031>035-040>046-190600-
SOUTHWEST NORTH DAKOTA

CITY           SKY/WX    TMP DP  RH WIND       PRES   REMARKS
BISMARCK       CLOUDY    71  61  70 S10       29.67R
DICKINSON      CLOUDY    67  59  75 SW12      29.69R
GARRISON         N/A     69  65  86 SW9       29.62F
HETTINGER ARPT CLOUDY    64  61  90 W10       29.75R
$$

NDZ004>008-012>016-024-026-027-054-190600-
NORTHEAST NORTH DAKOTA

CITY           SKY/WX    TMP DP  RH WIND       PRES   REMARKS
GRAND FORKS    CLOUDY    69  58  67 S18G30    29.66F
GRND FRKS AFB  CLOUDY    68  61  77 S16G23    29.66F
DEVILS LAKE    CLOUDY    70  57  64 S17       29.60F
$$

NDZ022-023-025-028>030-036>039-047>053-190600-
SOUTHEAST NORTH DAKOTA

CITY           SKY/WX    TMP DP  RH WIND       PRES   REMARKS
FARGO          CLOUDY    67  55  65 S20G29    29.75F
JAMESTOWN      CLOUDY    66  58  75 S13       29.72R
$$




USA.gov is the U.S. government's official web portal to all federal, state and local government web resources and services.